Flag for U.S.A. Weather past 2 weeks in Marengo, Indiana, U.S.A.

Now
79 °F

Clear.


Feels Like: 82 °F
Forecast: 74 / 90 °F
Wind: No wind

Location: Bowling Green-Warren County Regional Airport

Current Time: Jul 28, 2015 at 12:32:32 AM

Latest Report: Jul 27, 2015 at 10:53 PM


Visibility: 10 mi

Pressure: 29.97 "Hg

Humidity: 77%

Dew point: 71 °F

Location of MarengoLocation

Historic Weather in Marengo — Graph

°F

Marengo temperature yesterday

Maximum temperature yesterday: 88 °F (at 1:53 PM)
Minimum temperature yesterday: 74 °F (at 5:53 AM)
Average temperature yesterday: 82 °F

Past Weeks' High & Low Weather Summary

 TemperatureHumidityPressure
High95 °F (Jul 14, 3:53 PM)94% (Jul 15, 6:53 AM)30.03 "Hg (Jul 15, 6:53 AM)
Low66 °F (Jul 25, 5:53 AM)44% (Jul 14, 5:53 PM)29.64 "Hg (Jul 14, 4:53 PM)
Average81 °F72%29.91 "Hg
* Reported Jul 12 10:53 PM — Jul 27 10:53 PM, Marengo, Weather by CustomWeather, © 2015

Note: Actual official high and low records may vary slightly from our data, if they occured in-between our weather recording intervals... More about our weather records

Advertising

Marengo weather history for previous 24 hours

 ConditionsComfort  
Time TempWeatherWind HumidityBarometerVisibility
10:53 PM
Mon, Jul 27
79 °FClear.No wind77%29.97 "Hg10 mi
9:53 PM81 °FClear.6 mph72%29.96 "Hg10 mi
8:53 PM84 °FPassing clouds.6 mph72%29.93 "Hg10 mi
7:53 PM85 °FSunny.3 mph75%29.92 "Hg10 mi
6:53 PM86 °FSunny.8 mph72%29.90 "Hg10 mi
5:53 PM88 °FScattered clouds.6 mph63%29.92 "Hg10 mi
4:53 PM86 °FPartly sunny.7 mph75%29.94 "Hg10 mi
4:02 PM87 °FSunny.5 mph69%29.96 "Hg10 mi
3:53 PM87 °FThundershowers. Passing clouds.5 mph69%29.94 "Hg10 mi
3:01 PM82 °FHeavy rain. Broken clouds.7 mph77%29.97 "Hg2 mi
1:53 PM88 °FPartly sunny.7 mph63%29.97 "Hg10 mi
12:53 PM87 °FScattered clouds.No wind65%29.98 "Hg10 mi
11:53 AM86 °FPassing clouds.5 mph65%30.00 "Hg10 mi
10:53 AM85 °FSunny.5 mph65%30.00 "Hg10 mi
9:53 AM82 °FSunny.No wind74%29.99 "Hg10 mi
8:53 AM78 °FSunny.No wind84%29.98 "Hg7 mi
7:53 AM74 °FFog.No wind91%29.98 "Hg5 mi
6:53 AM75 °FPassing clouds.No wind88%29.97 "Hg8 mi
5:53 AM74 °FFog.No wind91%29.96 "Hg4 mi
4:53 AM75 °FFog.No wind90%29.94 "Hg6 mi
3:53 AM76 °FClear.No wind91%29.94 "Hg7 mi
2:53 AM76 °FFog.5 mph88%29.94 "Hg6 mi
1:53 AM77 °FClear.No wind88%29.94 "Hg7 mi
12:53 AM80 °FClear.No wind81%29.96 "Hg8 mi
Weather by CustomWeather, © 2015

See weather overviewHow to use our weather pages